Caldwell, ID

1:38 PM MST on November 22, 2017 (GMT -0700)
Caldwell Industrial

Weather History for KEUL - January, 2013

Change the Weather History Date:

Thursday, January 17, 2013

  Actual Average (KBOI) Record (KBOI)
Temperature  
Mean Temperature 8 °F -  
Max Temperature 15 °F 39 °F 58 °F (1923)
Min Temperature 1 °F 24 °F -20 °F (1883)
Degree Days  
Heating Degree Days 57    
Moisture  
Dew Point 0 °F    
Average Humidity 73    
Maximum Humidity 85    
Minimum Humidity 62    
Precipitation  
Precipitation 0.00 in - - ()
Sea Level Pressure  
Sea Level Pressure 30.72 in    
Wind  
Wind Speed 1 mph (NE)    
Max Wind Speed 6 mph    
Max Gust Speed -    
Visibility 2 miles    
Events      
Averages and records for this station are not official NWS values.
T = Trace of Precipitation, MM = Missing Value Source: NWS Daily Summary

Daily Weather History Graph

Daily Weather History Graph

Search for Another Location

Airport or City:

Trip Planner

Search our weather history database for the weather conditions in past years. The results will help you decide how hot, cold, wet, or windy it might be!

Date:

Astronomy

Jan. 17, 2013 Rise Set
Actual Time 8:15 AM MST 5:38 PM MST
Civil Twilight 7:43 AM MST 6:10 PM MST
Nautical Twilight 7:08 AM MST 6:45 PM MST
Astronomical Twilight 6:34 AM MST 7:19 PM MST
Moon 11:10 AM MST (1/17) No Moon Set
Length of Visible Light 10h 26m
Length of Day
9h 22m
Waxing Crescent, 38% of the Moon is Illuminated
Jan 17
Waxing Crescent
Jan 18
First Quarter
Jan 26
Full
Feb 3
Last Quarter
Feb 10
New

Hourly Weather History & Observations

Time (MST) Temp. Windchill Dew Point Humidity Pressure Visibility Wind Dir Wind Speed Gust Speed Precip Events Conditions
12:15 AM 6.8 °F - -0.4 °F 72% 30.76 in 0.5 mi Calm Calm - N/A   Overcast
12:35 AM 6.8 °F - -0.4 °F 72% 30.77 in 0.5 mi Calm Calm - N/A   Overcast
1:35 AM 5.0 °F - -2.2 °F 72% 30.77 in 0.2 mi Calm Calm - N/A   Overcast
1:55 AM 5.0 °F - -2.2 °F 72% 30.77 in 0.2 mi Calm Calm - N/A   Overcast
2:35 AM 5.0 °F -2.1 °F -2.2 °F 72% 30.77 in 0.2 mi ESE 3.5 mph - N/A   Overcast
2:55 AM 5.0 °F - -2.2 °F 72% 30.77 in 0.2 mi Calm Calm - N/A   Overcast
3:15 AM 5.0 °F - -2.2 °F 72% 30.78 in 0.2 mi Calm Calm - N/A   Overcast
3:35 AM 5.0 °F -2.1 °F -2.2 °F 72% 30.78 in 0.2 mi ESE 3.5 mph - N/A   Overcast
3:55 AM 3.2 °F -4.2 °F -2.2 °F 78% 30.77 in 0.2 mi East 3.5 mph - N/A   Overcast
4:15 AM 3.2 °F -4.2 °F -2.2 °F 78% 30.77 in 0.2 mi SE 3.5 mph - N/A   Overcast
4:35 AM 3.2 °F - -2.2 °F 78% 30.76 in 0.5 mi Calm Calm - N/A   Overcast
4:55 AM 3.2 °F - -2.2 °F 78% 30.76 in 2.5 mi Calm Calm - N/A   Overcast
5:15 AM 3.2 °F - -2.2 °F 78% 30.76 in 2.0 mi Calm Calm - N/A   Overcast
5:35 AM 5.0 °F - -2.2 °F 72% 30.76 in 2.0 mi Calm Calm - N/A   Overcast
5:55 AM 5.0 °F - -2.2 °F 72% 30.75 in 1.8 mi Calm Calm - N/A   Overcast
6:15 AM 5.0 °F - -0.4 °F 78% 30.75 in 1.0 mi Calm Calm - N/A   Overcast
6:35 AM 5.0 °F - -0.4 °F 78% 30.76 in 0.5 mi Calm Calm - N/A   Overcast
6:55 AM 5.0 °F - -2.2 °F 72% 30.76 in 0.5 mi Calm Calm - N/A   Overcast
7:15 AM 3.2 °F -6.2 °F -2.2 °F 78% 30.76 in 3.0 mi SE 4.6 mph - N/A   Overcast
7:35 AM 3.2 °F -6.2 °F -5.8 °F 66% 30.76 in 5.0 mi ESE 4.6 mph - N/A   Overcast
7:55 AM 1.4 °F -8.3 °F -5.8 °F 72% 30.76 in 4.0 mi ESE 4.6 mph - N/A   Overcast
8:15 AM 3.2 °F -6.2 °F -4.0 °F 72% 30.77 in 1.8 mi East 4.6 mph - N/A   Overcast
8:35 AM 3.2 °F -4.2 °F -4.0 °F 72% 30.78 in 0.8 mi East 3.5 mph - N/A   Overcast
8:55 AM 3.2 °F -4.2 °F -4.0 °F 72% 30.77 in 1.0 mi East 3.5 mph - N/A   Overcast
9:15 AM 3.2 °F - -4.0 °F 72% 30.78 in 1.0 mi Calm Calm - N/A   Overcast
9:35 AM 3.2 °F - -2.2 °F 78% 30.78 in 1.5 mi Calm Calm - N/A   Overcast
9:55 AM 3.2 °F - -2.2 °F 78% 30.79 in 2.0 mi Calm Calm - N/A   Overcast
10:15 AM 3.2 °F - -2.2 °F 78% 30.79 in 2.0 mi Calm Calm - N/A   Overcast
10:35 AM 5.0 °F - -2.2 °F 72% 30.79 in 2.0 mi Calm Calm - N/A   Overcast
10:55 AM 6.8 °F - -0.4 °F 72% 30.79 in 1.5 mi Calm Calm - N/A   Overcast
11:15 AM 8.6 °F - 1.4 °F 73% 30.78 in 1.5 mi Calm Calm - N/A   Overcast
11:35 AM 8.6 °F - 1.4 °F 73% 30.78 in 1.5 mi Calm Calm - N/A   Scattered Clouds
11:55 AM 10.4 °F - 3.2 °F 73% 30.77 in 1.8 mi Calm Calm - N/A   Mostly Cloudy
12:15 PM 10.4 °F - 5.0 °F 79% 30.76 in 1.8 mi Calm Calm - N/A   Overcast
12:35 PM 10.4 °F - 5.0 °F 79% 30.74 in 2.0 mi Calm Calm - N/A   Scattered Clouds
12:55 PM 12.2 °F - 8.6 °F 85% 30.73 in 2.0 mi Calm Calm - N/A   Clear
1:15 PM 12.2 °F - 8.6 °F 85% 30.73 in 2.5 mi Calm Calm - N/A   Clear
1:35 PM 14.0 °F - 8.6 °F 79% 30.72 in 2.5 mi Calm Calm - N/A   Clear
1:55 PM 14.0 °F - 8.6 °F 79% 30.71 in 2.5 mi Calm Calm - N/A   Clear
2:15 PM 15.8 °F 10.2 °F 8.6 °F 73% 30.70 in 2.5 mi NNE 3.5 mph - N/A   Clear
2:35 PM 15.8 °F - 6.8 °F 68% 30.69 in 2.5 mi Calm Calm - N/A   Clear
2:55 PM 15.8 °F - 8.6 °F 73% 30.69 in 2.5 mi Calm Calm - N/A   Clear
3:15 PM 15.8 °F - 8.6 °F 73% 30.68 in 2.5 mi Calm Calm - N/A   Clear
3:35 PM 15.8 °F 10.2 °F 6.8 °F 68% 30.68 in 2.5 mi North 3.5 mph - N/A   Clear
3:55 PM 15.8 °F 7.2 °F 5.0 °F 62% 30.68 in 2.5 mi North 5.8 mph - N/A   Clear
4:15 PM 14.0 °F 6.5 °F 3.2 °F 62% 30.67 in 2.5 mi North 4.6 mph - N/A   Clear
4:35 PM 12.2 °F 4.3 °F 3.2 °F 67% 30.67 in 2.5 mi North 4.6 mph - N/A   Clear
4:55 PM 12.2 °F 2.9 °F 1.4 °F 62% 30.67 in 2.5 mi NW 5.8 mph - N/A   Clear
5:15 PM 10.4 °F 0.8 °F 1.4 °F 67% 30.67 in 2.5 mi NW 5.8 mph - N/A   Clear
5:35 PM 10.4 °F 2.2 °F 1.4 °F 67% 30.67 in 2.5 mi NW 4.6 mph - N/A   Clear
5:55 PM 10.4 °F 2.2 °F 1.4 °F 67% 30.67 in 2.5 mi West 4.6 mph - N/A   Clear
6:15 PM 8.6 °F 2.0 °F 1.4 °F 73% 30.67 in 3.0 mi West 3.5 mph - N/A   Clear
6:35 PM 10.4 °F - 1.4 °F 67% 30.67 in 3.0 mi Calm Calm - N/A   Clear
6:55 PM 8.6 °F - -0.4 °F 67% 30.66 in 3.0 mi Calm Calm - N/A   Clear
7:15 PM 8.6 °F - 1.4 °F 73% 30.66 in 3.0 mi Calm Calm - N/A   Clear
7:55 PM 6.8 °F - -0.4 °F 72% 30.65 in 3.0 mi Calm Calm - N/A   Clear
8:15 PM 6.8 °F - 1.4 °F 79% 30.66 in 2.5 mi Calm Calm - N/A   Clear
8:35 PM 6.8 °F - -0.4 °F 72% 30.66 in 2.5 mi Calm Calm - N/A   Clear
8:55 PM 6.8 °F - 1.4 °F 79% 30.66 in 2.0 mi Calm Calm - N/A   Clear
9:15 PM 6.8 °F - -0.4 °F 72% 30.66 in 2.0 mi Calm Calm - N/A   Clear
9:35 PM 6.8 °F - -0.4 °F 72% 30.66 in 1.8 mi Calm Calm - N/A   Clear
9:55 PM 6.8 °F - -0.4 °F 72% 30.65 in 2.0 mi Calm Calm - N/A   Clear
10:15 PM 6.8 °F - -0.4 °F 72% 30.65 in 2.0 mi Calm Calm - N/A   Clear
10:35 PM 6.8 °F - -2.2 °F 67% 30.64 in 2.0 mi Calm Calm - N/A   Clear
11:15 PM 5.0 °F - -0.4 °F 78% 30.64 in 1.8 mi Calm Calm - N/A   Clear
11:35 PM 1.4 °F - -7.6 °F 66% 30.64 in 1.2 mi Calm Calm - N/A   Clear
11:55 PM 1.4 °F - -5.8 °F 72% 30.64 in 1.2 mi Calm Calm - N/A   Clear